Flag for Finland Weather past 2 weeks in Helsinki, Finland

Now
72 °F

Sunny.


Feels Like: 71 °F
Forecast: 66 / 82 °F
Wind: 2 mph from Southeast

Location: Helsinki Malmi Airport

Current Time: Jul 30, 2014 at 10:21:00 PM

Latest Report: Jul 30, 2014 at 9:50 PM


Visibility: 10 mi

Pressure: 29.77 "Hg

Humidity: 83%

Dew point: 66 °F

Location of HelsinkiLocation

Historic Weather in Helsinki — Graph

°F

Helsinki temperature yesterday

Maximum temperature yesterday: 81 °F (at 1:20 PM)
Minimum temperature yesterday: 64 °F (at 3:50 AM)
Average temperature yesterday: 73 °F

Past Weeks' High & Low Weather Summary

 TemperatureHumidityPressure
High86 °F (Jul 28, 4:50 PM)100% (Jul 17, 2:20 AM)30.24 "Hg (Jul 17, 2:20 AM)
Low54 °F (Jul 17, 3:20 AM)33% (Jul 28, 5:07 PM)29.77 "Hg (Jul 29, 5:50 PM)
Average70 °F72%30.06 "Hg
* Reported Jul 15 8:20 PM — Jul 30 8:50 PM, Helsinki, Weather by CustomWeather, © 2014

Note: Actual official high and low records may vary slightly from our data, if they occured in-between our weather recording intervals... More about our weather records

Advertising

Helsinki weather history for previous 24 hours

 ConditionsComfort  
Time TempWeatherWind HumidityBarometerVisibility
8:50 PM
Jul 30
72 °FPartly sunny.2 mph78%29.77 "HgN/A
8:20 PM72 °FPartly sunny.3 mph78%29.77 "HgN/A
7:50 PM72 °FPartly sunny.8 mph83%29.77 "HgN/A
7:20 PM75 °FSprinkles. Broken clouds.8 mph83%29.80 "HgN/A
6:50 PM75 °FBroken clouds.9 mph83%29.77 "HgN/A
6:20 PM75 °FBroken clouds.9 mph78%29.80 "HgN/A
5:50 PM77 °FScattered clouds.12 mph69%29.80 "HgN/A
5:20 PM79 °FPassing clouds.9 mph58%29.80 "HgN/A
4:50 PM79 °FPassing clouds.8 mph58%29.80 "HgN/A
4:20 PM79 °FPassing clouds.8 mph58%29.80 "HgN/A
3:50 PM79 °FPassing clouds.10 mph54%29.83 "HgN/A
3:20 PM79 °FPassing clouds.8 mph58%29.83 "HgN/A
2:50 PM81 °FPassing clouds.8 mph54%29.83 "HgN/A
2:20 PM79 °FPassing clouds.7 mph61%29.83 "HgN/A
1:50 PM77 °FPartly sunny.8 mph69%29.83 "HgN/A
1:20 PM77 °FPartly sunny.7 mph69%29.83 "HgN/A
12:50 PM77 °FPartly sunny.8 mph74%29.83 "HgN/A
12:20 PM79 °FScattered clouds.7 mph61%29.83 "HgN/A
11:50 AM81 °FScattered clouds.6 mph62%29.83 "HgN/A
11:20 AM77 °FScattered clouds.2 mph69%29.83 "HgN/A
10:50 AM77 °FScattered clouds.1 mph74%29.83 "HgN/A
10:20 AM75 °FScattered clouds.2 mph83%29.83 "HgN/A
9:50 AM73 °FPartly sunny.3 mph89%29.83 "HgN/A
9:20 AM72 °FBroken clouds.3 mph94%29.83 "Hg3 mi
8:50 AM70 °FFog.1 mph94%29.83 "Hg1 mi
8:20 AM68 °FFog.1 mph100%29.83 "Hg1 mi
7:50 AM68 °FLow clouds.No wind94%29.83 "Hg4 mi
7:20 AM66 °FPartly sunny.No wind94%29.83 "Hg3 mi
6:50 AM64 °FFog.No wind100%29.83 "Hg1 mi
6:20 AM63 °FLow clouds.No wind100%29.83 "Hg3 mi
5:50 AM61 °FFog.No wind100%29.83 "Hg2 mi
5:20 AM61 °FFog.No wind100%29.83 "Hg2 mi
4:50 AM63 °FFog.1 mph100%29.80 "Hg0 mi
4:20 AM61 °FFog.2 mph100%29.80 "Hg0 mi
3:50 AM61 °FFog.2 mph100%29.80 "Hg0 mi
3:20 AM63 °FFog.No wind100%29.80 "Hg1 mi
2:50 AM63 °FFog.No wind100%29.80 "Hg2 mi
2:20 AM64 °FFog.No wind100%29.80 "Hg1 mi
1:50 AM64 °FLight fog.No wind94%29.80 "Hg4 mi
1:20 AM64 °FFog.1 mph100%29.80 "Hg2 mi
12:50 AM64 °FLight fog.No wind100%29.80 "Hg0 mi
12:20 AM66 °FFog.No wind100%29.80 "Hg0 mi
11:50 PM
Jul 29
66 °FFog.No wind100%29.80 "Hg1 mi
11:20 PM68 °FFog.3 mph94%29.80 "Hg3 mi
10:50 PM68 °FFog.No wind100%29.80 "Hg2 mi
10:20 PM68 °FPartly sunny.No wind100%29.80 "Hg4 mi
Weather by CustomWeather, © 2014

See weather overviewHow to use our weather pages